Regional Weather Roundup
Issued by NWS

Home | Current Version | Previous Version | Text Only | Print | Product List | Glossary On
Versions: 1 2 3 4 5 6 7 8 9 10 11 12 13 14 15 16 17 18 19 20 21 22 23 24 25 26 27 28 29 30 31 32 33 34 35 36 37 38 39 40 41 42 43 44 45 46 47 48 49 50
000
ASCA42 TJSJ 280810
RWRPR
PUERTO RICO/U.S. VIRGIN ISLANDS HOURLY WEATHER ROUNDUP
NATIONAL WEATHER SERVICE SAN JUAN PR
400 AM AST THU MAY 28 2015

PRZ001-004-280900-
PUERTO RICO

CITY           SKY/WX    TMP DP  RH WIND       PRES   REMARKS
SAN JUAN LMM   PTCLDY    77  72  83 S3        29.93S
PONCE          PTCLDY    70  66  88 CALM      29.90S
CEIBA          LGT RAIN  75  72  88 NE3       29.95R
$$

PRZ006-007-280900-
U.S. VIRGIN ISLANDS

CITY           SKY/WX    TMP DP  RH WIND       PRES   REMARKS
CHARLOTTE AMA  CLEAR     77  72  83 E6        29.92S
CHRISTIANSTED  MOCLDY    73  70  88 N3        29.93S
$$

HOURLY WEATHER ROUNDUP FOR THE NEWS MEDIA

CITY           SKY/WX    TMP DP  RH WIND       PRES   REMARKS
ORLANDO        CLEAR     72  66  81 E3        30.11F
NEW YORK       PTCLDY    60  56  86 S6        30.15R
NEWARK         CLOUDY    70  67  90 SW6       30.12S
CHICAGO        PTCLDY    59  55  87 SW3       30.16S
HARTFORD       CLOUDY    63  59  87 SW15G23   30.15F
BOSTON         MOCLDY    64  60  87 SW13      30.11S
DALLAS         MOCLDY    77  71  82 S14       30.03S
PHILADELPHIA   PTCLDY    71  67  87 S8        30.13S
LOS ANGELES    PTCLDY    58  55  90 SW3       29.99F
WASHINGTON DC  CLOUDY    69  68  96 S6        30.12S


USA.gov is the U.S. government's official web portal to all federal, state and local government web resources and services.